Retour au catalogue

ION SCV-002

ActifScienceSSO
NORAD 47504·PAYLOAD·🇮🇹 Italy

Lancé Jan 24, 2021 depuis Cape Canaveral Space Force Station

Loading…

Prochains Passages (prochaines 24 heures)

TLE

FraisSource: Space-Track

Époque: Sep 14, 2026, 10:01 UTC

1 47504U 21006CV  26257.41766338  .00010230  00000-0  21123-3 0  9997
2 47504  97.1172 257.5446 0011831 141.3853 218.8245 15.45959431313802

Suivez ION SCV-002 en temps réel avec AllMySat

Download on the App Store